Zurück zum Katalog

STARLINK-30462

AktivKommunikationVLEO
NORAD 57902·PAYLOAD·🇺🇸 United States

Gestartet Sep 20, 2023 von Cape Canaveral Space Force Station

Loading…

Nächste Überflüge (nächste 24 Stunden)

TLE

AktuellSource: CelesTrak SupGP

Epoche: Sep 15, 2026, 02:49 UTC

1 57902C 23146M   26258.11784722  .00046973  00000+0  17011-2 0  2582
2 57902  43.0032 324.6200 0001516 262.2995 125.0808 15.27560522    12

Verfolge STARLINK-30462 in Echtzeit mit AllMySat

Download on the App Store